Weather in Tim

Russia / Kursk Oblast     51°37′18″N   37°07′20″E
temp.,
°C
wind,
m/s
gust,
m/s
humid.,
%
clouds,
%
prec.,
mm/h
press.,
hPa
HPBL,
m
13 may, thu
thu1300:00+7ese4109513 0.1 1016244
03:00+7ese4109486 0.1 1015240
06:00+8ese5119496 0.4 1015505
09:00+11sse698278 0.5 1015921
12:00+14sse586749 0.5 10151442
15:00+17s5855100 0.6 10142019
18:00+16s36661 0.1 1014715
21:00+12se2281100 0.1 101512
14 may, fri
fri1400:00+11se2289100 0.0 101522
03:00+11ese349496 0.3 101560
06:00+12ese4995100 0.5 1014205
09:00+17se61080100 0.8 1013529
12:00+22se81264100 0.0 10121362
15:00+22sse91367100 0.1 10111518
18:00+20sse51279100 0.1 1010842
21:00+16se51592100 2.1 1009342
15 may, sat
sat1500:00+15ssw3895100 2.8 1010162
03:00+13ssw44924 3.3 101064
06:00+13ssw3690100 0.0 1011138
09:00+17sw4679100 0.0 1012446
12:00+20sw46602 0.0 10121554
15:00+21sw5859100 0.1 10121890
18:00+19ssw2573100 0.3 1012274
21:00+15s337811 0.3 101322
16 may, sun
sun1600:00+13sw238196 0.0 101424
03:00+13wnw2287100 0.0 101416
06:00+13ne22861 0.0 101524
09:00+18ne227021 0.0 1015406
12:00+22e225658 0.0 10141173
15:00+23e234923 0.0 10131722
18:00+22ene366641 0.0 1012252
21:00+17ne47806 0.1 1012110
17 may, mon
mon1700:00+16ene478886 0.0 1011109
03:00+15ene41184100 0.0 1010179
06:00+15e5128332 0.0 1010237
09:00+21ese6136396 0.0 1009486
12:00+24ese7125319 0.0 1009970
15:00+26ese814525 0.0 10081934
18:00+23se8146090 0.0 1007809
21:00+19se6147384 0.0 1008386